Location: Unspecified
(0.0000°N, 0.0000°E)
Time: 22:18:13
(UTC+01:00)

Ariane H10 - Visible Passes

Search period start: 22 December 2014 00:00
Search period end: 01 January 2015 00:00
Orbit: 308 x 24584 km, 3.9° (Epoch: 22 December)

Date Brightness Start Highest point End Pass type
(mag) Time Alt. Az. Time Alt. Az. Time Alt. Az.
22 Dec 3.9 05:19:28 16° ENE 05:19:28 16° ENE 05:20:00 10° ENE visible
23 Dec 8.0 01:49:48 10° W 02:13:50 21° W 02:13:50 21° W visible
23 Dec 7.1 17:49:26 10° W 23:39:04 86° WNW 23:39:04 86° WNW visible
24 Dec 7.7 14:51:40 10° W 18:56:02 85° SE 21:04:19 26° E visible
25 Dec 7.8 21:08:45 10° W 01:37:47 32° W 01:37:47 32° W visible
26 Dec 7.0 17:05:52 10° W 22:56:32 88° N 23:02:55 76° ENE visible
27 Dec 7.9 14:12:15 10° W 14:57:09 84° S 20:28:02 15° E visible
28 Dec 7.5 19:48:56 10° W 01:01:19 46° W 01:01:19 46° W visible
29 Dec 7.1 16:23:25 10° W 22:08:53 89° N 22:26:20 59° E visible
30 Dec 1.8 06:05:15 28° NW 06:05:58 38° N 06:08:09 10° ENE visible
30 Dec 7.7 13:32:46 10° W 14:02:51 84° S 19:48:29 10° E visible
31 Dec 9.0 18:52:09 10° W 00:00:00 40° W 00:00:00 40° W visible
